This is the latest recevied weather packets stored in our database for station/object N4MGC. If no packets are shown the sender has not sent any weather packets the latest 10 day(s).
| Time | Temp. | Humidity | Pressure | Rain* | Wind** | Luminosity | Snow |
|---|---|---|---|---|---|---|---|
| 1777899876 | 10° C | 99% | 1017.9 hPa | 0 mm | - | 75 W/m² | - |
| 1777899572 | 9.44° C | 99% | 1017.7 hPa | 0 mm | - | 70 W/m² | - |
| 1777899270 | 9.44° C | 99% | 1017.6 hPa | 0 mm | - | 75 W/m² | - |
| 1777898967 | 8.89° C | 99% | 1017.7 hPa | 0 mm | - | 72 W/m² | - |
| 1777898664 | 8.33° C | 99% | 1017.6 hPa | 0 mm | - | 72 W/m² | - |
| 1777898361 | 7.78° C | 99% | 1017.8 hPa | 0 mm | - | 70 W/m² | - |
| 1777898059 | 7.78° C | 99% | 1017.6 hPa | 0 mm | - | 53 W/m² | - |
| 1777897755 | 7.78° C | 99% | 1017.7 hPa | 0 mm | - | 39 W/m² | - |
| 1777897451 | 7.78° C | 99% | 1017.6 hPa | 0 mm | - | 35 W/m² | - |
| 1777897148 | 7.22° C | 99% | 1017.6 hPa | 0 mm | - | 39 W/m² | - |
| 1777896844 | 7.22° C | 99% | 1017.3 hPa | 0 mm | - | 40 W/m² | - |
| 1777896541 | 7.22° C | 99% | 1017.6 hPa | 0 mm | - | 35 W/m² | - |
| 1777896238 | 6.67° C | 99% | 1017.4 hPa | 0 mm | - | 37 W/m² | - |
| 1777895936 | 6.67° C | 99% | 1017.4 hPa | 0 mm | - | 37 W/m² | - |
| 1777895634 | 6.67° C | 99% | 1017.3 hPa | 0 mm | - | 33 W/m² | - |
| 1777895331 | 6.67° C | 99% | 1017.2 hPa | 0 mm | - | 29 W/m² | - |
| 1777895029 | 6.11° C | 99% | 1017.2 hPa | 0 mm | - | 26 W/m² | - |
| 1777894726 | 6.11° C | 99% | 1017.2 hPa | 0 mm | - | 23 W/m² | - |
| 1777894422 | 6.11° C | 99% | 1017.1 hPa | 0 mm | - | 20 W/m² | - |
| 1777894120 | 6.11° C | 99% | 1017.1 hPa | 0 mm | - | 17 W/m² | - |
| 1777893817 | 5.56° C | 99% | 1017.2 hPa | 0 mm | - | 15 W/m² | - |
| 1777893513 | 5.56° C | 99% | 1017 hPa | 0 mm | - | 12 W/m² | - |
| 1777893209 | 5.56° C | 99% | 1017 hPa | 0 mm | - | 8 W/m² | - |
| 1777892906 | 5.56° C | 99% | 1016.7 hPa | 0 mm | - | 6 W/m² | - |
| 1777892603 | 5.56° C | 99% | 1016.7 hPa | 0 mm | - | 3 W/m² | - |
* Rain latest hour (hover to see other rain measurements)
** Current wind speed in m/s (hover to see current wind gust speed)